GSAT-20

operational
NORAD ID: 62028 Int'l Des: 2024-214 Owner: NSIL Country: IN
HEOCIRCULARGSOGEO

GSAT-20について

説明を読み込み中...

リアルタイム位置

3D地球を読み込み中...

次回通過

高度履歴

Altitude vs Time

uPlot chart will show altitude changes over time

軌道要素

1 62028U 24214A 25340.51151691 -.00000013 00000-0 00000-0 0 9999
2 62028 0.0373 94.2068 0003057 202.6128 30.9042 1.00268934 3967
Epoch: Dec 6, 2025 • Age: 17 hours

現在のステータス

高度 35783.5 km
速度 3.07 km/s
衛星直下点 -0.00°S, 67.99°E
打ち上げ日 Nov 18, 2024
運用期間 1 years
タイプ other

技術仕様

分類 Payload
質量 4700.00 kg
乾燥質量 2500.00 kg
総質量 4700.00 kg
長さ 4.00 m
直径 2.50 m
スパン 25.00 m
形状 Box + 2 Pan
製造者 ISAC
バスタイプ I4K
フェーズステータス In Orbit
所有者/国 NSIL/IN

大規模コンステレーション

Loading constellations...